Showing default

CHUBUSAT 2, 41338

Orbit data source: Space-Track

CHUBUSAT 2, 41338 is a payload satellite owned by Nagoya (JP) in LEO that was launched on Wed, 17 Feb 2016 UTC via an H-IIA 202 launch vehicle from the Tanegashima Space Center (TNSTA). Payload-class satellites include a variety of spacecraft equipped with specific instruments for various scientific and technological missions. These include communications satellites like Starlink; space stations such as the ISS; scientific satellites like the Hubble; Earth observation satellites from companies like Planet Labs, Umbra, and HawkEye 360; GPS; miniature CubeSats for education and research; and military/defense satellites.

Loading next visibility...
Identifier
41338, 2016-012B
Orbit
LEO
Country
Flag of JPJP / JPN
Related business
Manufacturer
Nagoya
Mission
Non-operational Amateur Science
Bus & Motor
Unknown
Mass
50 kg wet, 50 kg dry
Launch date (UTC)
2016-02-17 (10 years ago)
Launch vehicle
H-IIA 202
Launch site
Tanegashima Space Center (TNSTA)
Object type
Payload
Rocket body
Debris
Shape & HBR
Box, 0.3 m
Radar Cross Section
0.480 m², Medium (>0.1 m² and < 1m²)

Expand to show TLE details & history
Last TLE update: 13 hours ago

TLE from 13 hours ago
0 CHUBUSAT 2
1 41338U 16012B   26124.03527806  .00006073  00000-0  26605-3 0  9993
2 41338  30.9980 251.0306 0008755 347.6448  12.3977 15.20444956561694
Epoch: 2026-05-04T00:50Z
TLE epoch observation values (Epoch: 2026-05-04T00:50:48.024Z)
Latitude
-0.00004°
Longitude
16.40019°
Altitude
497.116 km
Speed
7.622 km/s
True Right ascension
16h 44m 07s
True Declination
0° 00' 00"
Sunlit
Object was in full shadow at epoch
Visualization orbit readout
Latitude
Unknown
Longitude
Unknown
Altitude
Unknown
Speed
Unknown
Apparent Right ascension
Unknown
Apparent Declination
Unknown
Sunlit
N/A
Visualization observer readout
Local Sidereal Time
21:19:21
Azimuth
Unknown
Elevation
Unknown
Doppler factor
Unknown
Orbital elements
Apogee altitude
514.386 km
Perigee altitude
502.327 km
Semi-major axis
6,886.493 km
Eccentricity
0.00088
Inclination
30.998°
RAAN
251.0306°
Arg. of periapsis
347.6448°
True anomaly
12.41926°
Mean anomaly
12.3977°
Eccentric anomaly
12.40848°
Mean motion
3.79792 °/min
Orbital period
94.79 mins
BSTAR
0.00026605
Loading maneuver chart data...
Computing Atmospheric mass density...
Loading historical data...
Loading historical data...
Loading historical data...
Loading historical data...
Loading historical data...
Loading historical data...
Loading historical data...

Documentation

Showing up to 5 results
|